Other Surface Observations
Issued by NWS Charleston, SC

Home | Current Version | Previous Version | Text Only | Print | Product List | Glossary On
Versions: 1 2 3 4 5 6 7 8 9 10 11 12 13 14 15 16 17 18 19 20 21 22 23 24 25 26 27 28 29 30 31 32 33 34 35 36 37 38 39 40 41 42 43 44 45 46 47 48 49 50
000
SXUS52 KCHS 221325
OSOCHS

MARINE OBSERVATIONS
NATIONAL WEATHER SERVICE CHARLESTON SC
900 AM EDT WED OCT 22 2014

...DOWNTOWN CHARLESTON AND HARBOR...

CITY           SKY/WX    TMP DP  RH WIND       PRES   REMARKS
WATERFRONT PRK NOT AVBL
FORT JOHNSON   NOT AVBL

...LAKE MOULTRIE...

CITY           SKY/WX    TMP DP  RH WIND       PRES   REMARKS
PINOPOLIS      NOT AVBL

...LAKE AND SUPPLEMENTAL COASTAL OBSERVATIONS...

STATION/POSITION TIME  TEMP    WIND        PRES    WAVE   SWELL
                       AIR SEA DIR/SP/G            HT/PER HT/PER/DIR
                 (UTC) (F)     (DEG/KT/KT) (MB)    (FT/S) (FT/S/D)
FORT PULASKI     1300   59     350/ 11/ 17 1017.6R
SAPELO ISLAND    NOT AVBL
UPR LAKE MARION  NOT AVBL
WINYAH BAY       1300   55     340/  6     1016.0S
LAKE MURRAY      1200   50     330/  2/  8 1017.3R
ACE BASIN NERRS  1300   54      20/  4     1017.0S


...C-MAN AND BUOY OBSERVATIONS...

STATION/POSITION TIME  TEMP    WIND        PRES    WAVE   SWELL
                       AIR SEA DIR/SP/G            HT/PER HT/PER/DIR
                 (UTC) (F)     (DEG/KT/KT) (MB)    (FT/S) (FT/S/D)
BUOY 41004       1300   63 79  360/ 19/ 23 1014.9R   5/ 6   2/10
BUOY 41008       1300   66 76   20/ 17/ 21 1016.0R   4/ 5
FOLLY BEACH CMAN 1300   58     350/ 13/ 18 1017.5R
CAPERS NS BUOY   1200   58     360/ 14/ 17   N/A
FRIPP NS BUOY    NOT AVBL
5E ST. MARYS GA  1300      78                N/A     3/ 4
FRYING PAN BUOY  1300   59 75  340/ 17/ 21 1014.8R   5/ 5
BUOY 41025       1300   62     300/ 21/ 25 1010.6R   4/ 5   2/ 90/ 9
CAPE LOOKOUT NC  1300   57     320/ 14/ 17 1012.9R
BUOY 41002       1247   77 79  280/ 17/ 21 1012.0R   5/ 6   2/110/ 9
BUOY 41010       1300   77 80  360/  6/  8 1014.3R   3/ 8   2/ 70/ 8
BUOY 41012       NOT AVBL
ST AUGUSTINE FL  1300   65     320/  5/  7 1016.5R


$$



USA.gov is the U.S. government's official web portal to all federal, state and local government web resources and services.